[[{"header":{"parameterUnit":"m.s-1","parameterCategory":1,"la1":30.2991,"la2":30.254,"lo1":-89.0895,"lo2":-89.0444,"dy":0.0017,"dx":0.0017,"nx":28,"ny":28,"refTime":"2025-02-13T09:00:00:Z","depth":0,"parameterNumber":2,"parameterNumberName":"U-component_of_WINDS"},"data":[0,0,0,0,0,0,0,0,0,0,0,0,0,0,0,0,0,0,0,0,0,0,0,0,0,0,0,0,0,0,0,0,0,0,0,0,0,0,0,0,0,0,0,0,0,0,0,0,0,0,0,0,0,0,0,0,0,0,-3.5242,-3.5243,0,-3.5294,-3.5294,-3.5295,-3.5207,-3.5204,-3.5201,-3.5199,-3.5252,-3.5256,-3.526,0,0,0,0,0,0,0,0,0,0,0,0,0,-3.5068,-3.5072,-3.5242,-3.5243,-3.5244,-3.5294,-3.5294,-3.5295,-3.5208,-3.5204,-3.5201,-3.5197,-3.525,-3.5255,-3.526,0,0,0,0,0,0,0,0,0,0,0,0,0,-3.5134,-3.5073,-3.5242,-3.5206,-3.5203,-3.5293,-3.5294,-3.5295,-3.5209,-3.5204,-3.52,-3.5196,-3.5249,-3.5255,-3.5261,-3.5389,0,0,-3.528,-3.5283,0,0,0,0,0,0,0,0,-3.5131,-3.5141,-3.5211,-3.5209,-3.5206,-3.524,-3.5252,-3.5327,-3.521,-3.5207,-3.5199,-3.5193,-3.5251,-3.5257,-3.5276,-3.5391,-3.5393,-3.5281,-3.5284,-3.5287,-3.5289,0,0,0,0,0,0,0,-3.5126,-3.5138,-3.5263,-3.5212,-3.5209,-3.5187,-3.5192,-3.5266,-3.5253,-3.5207,-3.52,-3.5208,-3.5249,-3.5271,-3.5277,-3.5394,-3.528,-3.5286,-3.529,-3.5292,-3.5615,-3.562,0,0,0,0,0,0,-3.5126,-3.5135,-3.5261,-3.5264,-3.5156,-3.5194,-3.5199,-3.5233,-3.5252,-3.5251,-3.5211,-3.5203,-3.5262,-3.527,-3.5279,-3.543,-3.5287,-3.5293,-3.5297,-3.5611,-3.5616,-3.5622,0,0,0,0,0,0,-3.5123,-3.5138,-3.5259,-3.5198,-3.5211,-3.5202,-3.5241,-3.5237,-3.5258,-3.5256,-3.5253,-3.5236,-3.5259,-3.527,-3.5362,-3.543,-3.5296,-3.5301,-3.5605,-3.5612,-3.5619,-3.5733,0,0,0,0,0,0,-3.5118,-3.5137,-3.5186,-3.5199,-3.5215,-3.5342,-3.5245,-3.5241,-3.5269,-3.5259,-3.5278,-3.5277,-3.5256,-3.5353,-3.5368,-3.5436,-3.5306,-3.5599,-3.5608,-3.5617,-3.5723,-3.5743,-3.576,0,0,0,0,0,-3.5112,-3.5216,-3.5189,-3.5205,-3.5276,-3.5346,-3.5355,-3.5329,-3.5275,-3.5324,-3.5322,-3.5276,-3.542,-3.5363,-3.5379,-3.5451,-3.5594,-3.5606,-3.5616,-3.5714,-3.5739,-3.576,0,0,0,0,0,0,-3.5212,-3.5217,-3.5187,-3.5299,-3.5323,-3.5331,-3.5392,-3.5356,-3.5395,-3.5384,-3.535,-3.5355,-3.5454,-3.5461,-3.5398,-3.5575,-3.5498,-3.5513,-3.5567,-3.559,-3.5609,-3.5606,-3.5312,0,0,0,0,0,-3.5247,-3.5303,-3.5305,-3.5403,-3.5417,-3.5403,-3.5432,-3.541,-3.5433,-3.5443,-3.5448,-3.5472,-3.5522,-3.5556,-3.5602,-3.5722,-3.5725,-3.5779,-3.5798,-3.5813,-3.5827,-3.5891,-3.5915,-3.5657,-3.5657,-3.5657,0,0,-3.532,-3.533,-3.5368,-3.5424,-3.5439,-3.5499,-3.5412,-3.5478,-3.5522,-3.5453,-3.554,-3.5545,-3.5569,-3.5676,-3.5723,-3.5685,-3.5898,-3.5827,-3.5839,-3.5845,-3.5904,-3.5929,-3.595,-3.5665,-3.5663,-3.5662,0,0,-3.5483,-3.5496,-3.558,-3.5597,-3.5621,-3.5611,-3.5631,-3.5645,-3.5645,-3.5732,-3.5681,-3.5732,-3.582,-3.5839,-3.5861,-3.603,-3.599,-3.6046,-3.6144,-3.6207,-3.6227,-3.6245,-3.6306,-3.6328,-3.6059,-3.6059,-3.606,0,-3.5571,-3.5659,-3.5627,-3.5697,-3.5723,-3.5662,-3.5747,-3.5765,-3.5804,-3.5823,-3.5779,-3.5887,-3.5899,-3.601,-3.6051,-3.607,-3.6092,-3.6045,-3.6227,-3.6244,-3.626,-3.6318,-3.6341,-3.6066,-3.6065,-3.6065,-3.6064,0,-3.5765,-3.5827,-3.5891,-3.593,-3.5963,-3.604,-3.602,-3.6057,-3.6031,-3.6025,-3.6114,-3.6126,-3.6174,-3.6198,-3.6174,-3.6305,-3.628,-3.6232,-3.6155,-3.6292,-3.6346,-3.6368,-3.6076,-3.6073,-3.6071,-3.607,0,0,-3.5996,-3.6015,-3.6039,-3.6056,-3.6078,-3.6124,-3.6198,-3.6244,-3.6277,-3.6304,-3.6366,-3.644,-3.6395,-3.642,-3.6397,-3.6452,-3.6585,-3.6396,-3.6396,-3.6432,-3.6731,-3.6768,-3.6795,-3.6558,-3.6562,-3.6565,-3.6729,0,-3.6159,-3.6286,-3.626,-3.6385,-3.6441,-3.6383,-3.6447,-3.6467,-3.6463,-3.651,-3.6505,-3.6559,-3.6495,-3.6509,-3.6561,-3.6558,-3.6645,-3.6546,-3.6615,-3.6618,-3.6612,-3.6823,-3.6862,-3.7017,-3.675,-3.6754,-3.6756,0,-3.6368,-3.6403,-3.6534,-3.6546,-3.6569,-3.6627,-3.6667,-3.6712,-3.6733,-3.6726,-3.6753,-3.6719,-3.6791,-3.6711,-3.6811,-3.6744,-3.677,-3.6773,-3.6778,-3.6785,-3.6697,-3.6836,-3.7066,-3.709,-3.6789,-3.6786,-3.6784,0,-3.6524,-3.6604,-3.6693,-3.6709,-3.6725,-3.6767,-3.6776,-3.6792,-3.6821,-3.6856,-3.6874,-3.6917,-3.694,-3.6974,-3.6952,-3.6895,-3.7055,-3.6973,-3.7052,-3.7053,-3.709,-3.7088,-3.7328,-3.7104,-3.7104,-3.7103,-3.7103,0,-3.671,-3.6793,-3.6763,-3.6818,-3.6908,-3.6876,-3.6966,-3.6968,-3.6983,-3.7036,-3.6988,-3.7039,-3.7006,-3.7055,-3.7038,-3.7123,-3.7134,-3.713,-3.7125,-3.7136,-3.7137,-3.7154,-3.7143,-3.711,-3.7108,-3.7107,-3.7106,0,-3.6901,-3.6885,-3.6977,-3.6984,-3.6988,-3.7055,-3.706,-3.7111,-3.7102,-3.7171,-3.7185,-3.7172,-3.7226,-3.7207,-3.7265,-3.7254,-3.7362,-3.7343,-3.7356,-3.7351,-3.7431,-3.7425,-3.7692,-3.7726,-3.7479,-3.7482,-3.7484,0,-3.7022,-3.7084,-3.7098,-3.713,-3.7142,-3.7195,-3.7224,-3.7194,-3.7227,-3.7255,-3.7302,-3.7352,-3.7391,-3.748,-3.7476,-3.752,-3.7501,-3.7592,-3.7508,-3.7516,-3.7504,-3.7501,-3.7507,-3.761,-3.7612,-3.7615,-3.7617,0,-3.7239,-3.7228,-3.7272,-3.7313,-3.7349,-3.7381,-3.7407,-3.7436,-3.7407,-3.7446,-3.7501,-3.7531,-3.759,-3.764,-3.768,-3.7688,-3.7648,-3.7643,-3.7663,-3.7676,-3.7681,-3.768,-3.7403,-3.7637,-3.7635,-3.7634,-3.7633,-3.7632,-3.74,-3.7452,-3.747,-3.752,-3.7537,-3.7563,-3.7611,-3.7607,-3.7653,-3.7699,-3.7677,-3.7741,-3.7759,-3.7808,-3.7821,-3.787,-3.7835,-3.7865,-3.7873,-3.7881,-3.7892,-3.7672,-3.7877,-3.7876,-3.7876,-3.7875,-3.7875,0,-3.7615,-3.7623,-3.767,-3.7709,-3.7748,-3.7706,-3.7733,-3.7769,-3.7826,-3.7846,-3.7884,-3.7947,-3.7995,-3.7994,-3.8039,-3.8078,-3.8061,-3.8091,-3.8089,-3.8091,-3.792,-3.7899,-3.8104,-3.8104,-3.8104,-3.8104,-3.8104,-3.8104,-3.7732,-3.7819,-3.7809,-3.7902,-3.7909,-3.7972,-3.7991,-3.8014,-3.803,-3.8102,-3.8142,-3.814,-3.8152,-3.8196,-3.8238,-3.8237,-3.8256,-3.8293,-3.8285,-3.8126,-3.8103,-3.8082,-3.8061,-3.8297,-3.8297,-3.8451,-3.8453,-3.8454]},{"header":{"parameterUnit":"m.s-1","parameterCategory":1,"la1":30.2991,"la2":30.254,"lo1":-89.0895,"lo2":-89.0444,"dy":0.0017,"dx":0.0017,"nx":28,"ny":28,"refTime":"2025-02-13T09:00:00:Z","depth":0,"parameterNumber":3,"parameterNumberName":"V-component_of_WINDS"},"data":[0,0,0,0,0,0,0,0,0,0,0,0,0,0,0,0,0,0,0,0,0,0,0,0,0,0,0,0,0,0,0,0,0,0,0,0,0,0,0,0,0,0,0,0,0,0,0,0,0,0,0,0,0,0,0,0,0,0,-7.2727,-7.2728,0,-7.2834,-7.2835,-7.2836,-7.2759,-7.2756,-7.2752,-7.2749,-7.2853,-7.2858,-7.2864,0,0,0,0,0,0,0,0,0,0,0,0,0,-7.2448,-7.2454,-7.2727,-7.2728,-7.273,-7.2834,-7.2835,-7.2837,-7.276,-7.2755,-7.2751,-7.2747,-7.2851,-7.2858,-7.2865,0,0,0,0,0,0,0,0,0,0,0,0,0,-7.2564,-7.2456,-7.2727,-7.2704,-7.2703,-7.2834,-7.2835,-7.2837,-7.276,-7.2755,-7.275,-7.2745,-7.2848,-7.2857,-7.2866,-7.3023,0,0,-7.2893,-7.2897,0,0,0,0,0,0,0,0,-7.2557,-7.2574,-7.2706,-7.2706,-7.2705,-7.2778,-7.2775,-7.2899,-7.2762,-7.2738,-7.2749,-7.2743,-7.2831,-7.2841,-7.2873,-7.3028,-7.3032,-7.2894,-7.2899,-7.2903,-7.2905,0,0,0,0,0,0,0,-7.2549,-7.2569,-7.2769,-7.2708,-7.2707,-7.2686,-7.2697,-7.2798,-7.2812,-7.274,-7.2735,-7.2749,-7.283,-7.2864,-7.2874,-7.3034,-7.2893,-7.2901,-7.2907,-7.291,-7.3321,-7.3326,0,0,0,0,0,0,-7.2544,-7.2563,-7.2766,-7.2772,-7.2617,-7.2695,-7.2707,-7.276,-7.2811,-7.2814,-7.2753,-7.2745,-7.2851,-7.2864,-7.2878,-7.3064,-7.2903,-7.2911,-7.2916,-7.3316,-7.3322,-7.3328,0,0,0,0,0,0,-7.2539,-7.2563,-7.2761,-7.2666,-7.269,-7.2705,-7.2765,-7.2764,-7.2798,-7.2821,-7.2822,-7.2786,-7.2848,-7.2865,-7.2987,-7.3067,-7.2915,-7.2923,-7.3309,-7.3318,-7.3325,-7.344,0,0,0,0,0,0,-7.2531,-7.2562,-7.2624,-7.2668,-7.2695,-7.2872,-7.277,-7.277,-7.2815,-7.2805,-7.2852,-7.2855,-7.2845,-7.2975,-7.2996,-7.3076,-7.293,-7.3302,-7.3313,-7.3323,-7.3429,-7.3451,-7.347,0,0,0,0,0,-7.2521,-7.265,-7.2627,-7.2652,-7.2773,-7.2877,-7.2892,-7.288,-7.2822,-7.2882,-7.2896,-7.2853,-7.3055,-7.2988,-7.3012,-7.3096,-7.3297,-7.331,-7.3322,-7.342,-7.3446,-7.3469,0,0,0,0,0,0,-7.2613,-7.2656,-7.2631,-7.2778,-7.2825,-7.2863,-7.294,-7.2909,-7.2972,-7.296,-7.294,-7.2952,-7.308,-7.3099,-7.3024,-7.3249,-7.3166,-7.3184,-7.3232,-7.3258,-7.3278,-7.327,-7.2938,0,0,0,0,0,-7.2651,-7.2733,-7.2765,-7.2892,-7.2917,-7.2925,-7.297,-7.2957,-7.3003,-7.3022,-7.3044,-7.3089,-7.3162,-7.3211,-7.328,-7.3431,-7.3439,-7.35,-7.352,-7.3537,-7.3553,-7.3632,-7.366,-7.337,-7.3369,-7.3369,0,0,-7.2728,-7.2762,-7.2815,-7.2912,-7.2946,-7.303,-7.2942,-7.3035,-7.3096,-7.3035,-7.3152,-7.3171,-7.3219,-7.3356,-7.3418,-7.3376,-7.3635,-7.3553,-7.3566,-7.3573,-7.3648,-7.3676,-7.37,-7.3378,-7.3377,-7.3375,0,0,-7.2914,-7.2948,-7.3058,-7.3094,-7.3148,-7.3152,-7.3178,-7.3222,-7.3232,-7.335,-7.3306,-7.3377,-7.3504,-7.354,-7.3575,-7.3772,-7.3734,-7.3795,-7.3901,-7.3979,-7.4002,-7.4022,-7.4092,-7.4117,-7.381,-7.381,-7.3811,0,-7.3003,-7.3131,-7.3117,-7.3214,-7.3256,-7.3207,-7.3316,-7.3351,-7.3423,-7.3453,-7.3406,-7.3564,-7.3593,-7.3737,-7.3785,-7.3816,-7.3843,-7.3789,-7.4,-7.402,-7.4039,-7.4105,-7.4131,-7.3817,-7.3817,-7.3816,-7.3815,0,-7.3237,-7.3326,-7.3407,-7.3481,-7.3532,-7.3635,-7.3634,-7.3688,-7.367,-7.3678,-7.3797,-7.383,-7.3904,-7.3937,-7.392,-7.4079,-7.4052,-7.4003,-7.3919,-7.4074,-7.4135,-7.4161,-7.3827,-7.3825,-7.3823,-7.3821,0,0,-7.3484,-7.3549,-7.3579,-7.3611,-7.3666,-7.3733,-7.3831,-7.3905,-7.3951,-7.4002,-7.4083,-7.4191,-7.4146,-7.4186,-7.4172,-7.424,-7.4393,-7.4183,-7.4184,-7.422,-7.4568,-7.4604,-7.4634,-7.4368,-7.4373,-7.4377,-7.4564,0,-7.3672,-7.3847,-7.3837,-7.4,-7.408,-7.4033,-7.4118,-7.416,-7.417,-7.4237,-7.4247,-7.4324,-7.4259,-7.4283,-7.4349,-7.4361,-7.4463,-7.4347,-7.4441,-7.4445,-7.4431,-7.4666,-7.4705,-7.4881,-7.4588,-7.4592,-7.4595,0,-7.3915,-7.3976,-7.4148,-7.419,-7.4223,-7.43,-7.4367,-7.4433,-7.4477,-7.4479,-7.4524,-7.4498,-7.4595,-7.4509,-7.464,-7.4562,-7.4599,-7.4611,-7.4618,-7.4626,-7.4529,-7.468,-7.4936,-7.4962,-7.4633,-7.463,-7.4627,0,-7.4077,-7.4202,-7.432,-7.4349,-7.4401,-7.4457,-7.448,-7.4521,-7.4565,-7.4622,-7.465,-7.4717,-7.4754,-7.4805,-7.4797,-7.4735,-7.4931,-7.4844,-7.4934,-7.4934,-7.4977,-7.4975,-7.5242,-7.5002,-7.5002,-7.5001,-7.5001,0,-7.4287,-7.4394,-7.4394,-7.4467,-7.4584,-7.457,-7.4685,-7.4702,-7.4739,-7.4812,-7.4774,-7.4843,-7.4829,-7.4897,-7.4891,-7.5001,-7.5017,-7.502,-7.5017,-7.5024,-7.5023,-7.5048,-7.5035,-7.5008,-7.5007,-7.5005,-7.5004,0,-7.4488,-7.4493,-7.4619,-7.4658,-7.467,-7.4754,-7.4786,-7.4854,-7.486,-7.4954,-7.4974,-7.4984,-7.5062,-7.5059,-7.5147,-7.5143,-7.5277,-7.526,-7.5263,-7.526,-7.5349,-7.534,-7.5642,-7.568,-7.5415,-7.5418,-7.542,0,-7.4622,-7.4703,-7.4751,-7.4799,-7.4827,-7.4904,-7.495,-7.4938,-7.4987,-7.5044,-7.5104,-7.5179,-7.5238,-7.5365,-7.5378,-7.5445,-7.5428,-7.5529,-7.5438,-7.5442,-7.5429,-7.5424,-7.5432,-7.5547,-7.555,-7.5553,-7.5555,0,-7.486,-7.4858,-7.4926,-7.4996,-7.5052,-7.5105,-7.5154,-7.5195,-7.5188,-7.5244,-7.5325,-7.5371,-7.5461,-7.5536,-7.5599,-7.562,-7.5586,-7.5583,-7.5607,-7.5615,-7.5613,-7.5614,-7.5312,-7.5576,-7.5574,-7.5573,-7.5571,-7.5571,-7.5031,-7.51,-7.5145,-7.5222,-7.5258,-7.5305,-7.537,-7.5385,-7.5452,-7.5527,-7.5515,-7.5604,-7.5645,-7.5727,-7.5754,-7.5822,-7.5786,-7.5822,-7.583,-7.5839,-7.5849,-7.5602,-7.5834,-7.5833,-7.5833,-7.5832,-7.5832,0,-7.5265,-7.5292,-7.5363,-7.5434,-7.5494,-7.5458,-7.551,-7.5562,-7.5642,-7.5684,-7.5743,-7.5835,-7.5906,-7.5925,-7.5993,-7.6044,-7.6029,-7.6062,-7.6058,-7.6063,-7.5878,-7.585,-7.6072,-7.6072,-7.6072,-7.6072,-7.6072,-7.6072,-7.5395,-7.551,-7.5513,-7.5645,-7.567,-7.5759,-7.5792,-7.5833,-7.5866,-7.5971,-7.6031,-7.6043,-7.6075,-7.6145,-7.6208,-7.6211,-7.6237,-7.6276,-7.6273,-7.61,-7.6076,-7.6053,-7.6027,-7.6282,-7.6283,-7.6452,-7.6454,-7.6455]}]]